• In Portugal
  • List of Countries
  • For 7 days
  • Water Temperature
  • Satellite Maps
  • Weather Map
  • Weather Widgets
  • user-avatar
    Login

    Hourly Weather Michalkowa

    Today, 21 April, Saturday

    Time Temperature Precipitation Wind Pressure Humidity
    00:00 +14°C° 0 mm 3 mps 725 mmHg 69%
    01:00 +14°C° 0 mm 2 mps 724 mmHg 68%
    02:00 +14°C° 0 mm 2 mps 724 mmHg 69%
    03:00 +13°C° 0 mm 3 mps 724 mmHg 69%
    04:00 +13°C° 0 mm 3 mps 724 mmHg 70%
    05:00 +15°C° 0 mm 2 mps 724 mmHg 69%
    06:00 +16°C° 0 mm 2 mps 724 mmHg 68%
    07:00 +17°C° 0 mm 3 mps 724 mmHg 64%
    08:00 +18°C° 0 mm 3 mps 724 mmHg 59%
    09:00 +20°C° 0 mm 3 mps 724 mmHg 55%
    10:00 +22°C° 0 mm 3 mps 724 mmHg 50%
    11:00 +22°C° 0 mm 3 mps 724 mmHg 49%
    12:00 +24°C° 0 mm 3 mps 724 mmHg 48%
    13:00 +25°C° 0 mm 3 mps 724 mmHg 46%
    14:00 +25°C° 0.1 mm 3 mps 724 mmHg 48%
    15:00 +23°C° 0.1 mm 4 mps 724 mmHg 50%
    16:00 +23°C° 0.1 mm 4 mps 723 mmHg 53%
    17:00 +21°C° 0.1 mm 3 mps 723 mmHg 60%
    18:00 +18°C° 0.1 mm 3 mps 723 mmHg 67%
    19:00 +16°C° 0.1 mm 2 mps 723 mmHg 75%
    20:00 +15°C° 0 mm 2 mps 723 mmHg 76%
    21:00 +14°C° 0 mm 2 mps 724 mmHg 78%
    22:00 +12°C° 0 mm 2 mps 724 mmHg 80%
    23:00 +12°C° 0 mm 1 mps 724 mmHg 80%

    Tomorrow, 22 April, Sunday

    Time Temperature Precipitation Wind Pressure Humidity
    00:00 +11°C° 0 mm 1 mps 724 mmHg 80%
    01:00 +10°C° 0 mm 1 mps 724 mmHg 79%
    02:00 +10°C° 0 mm 1 mps 724 mmHg 79%
    03:00 +9°C° 0 mm 1 mps 724 mmHg 79%
    04:00 +9°C° 0 mm 1 mps 723 mmHg 78%
    05:00 +10°C° 0 mm 1 mps 723 mmHg 74%
    06:00 +11°C° 0 mm 1 mps 724 mmHg 71%
    07:00 +12°C° 0 mm 1 mps 724 mmHg 67%
    08:00 +14°C° 0 mm 1 mps 724 mmHg 62%
    09:00 +16°C° 0 mm 1 mps 724 mmHg 57%
    10:00 +18°C° 0 mm 1 mps 724 mmHg 52%
    11:00 +19°C° 0 mm 1 mps 724 mmHg 49%
    12:00 +20°C° 0 mm 1 mps 723 mmHg 46%
    13:00 +21°C° 0 mm 1 mps 723 mmHg 43%
    14:00 +21°C° 0 mm 1 mps 723 mmHg 44%
    15:00 +20°C° 0 mm 2 mps 723 mmHg 45%
    16:00 +20°C° 0 mm 2 mps 722 mmHg 45%
    17:00 +18°C° 0 mm 2 mps 722 mmHg 52%
    18:00 +16°C° 0 mm 1 mps 722 mmHg 59%
    19:00 +14°C° 0 mm 1 mps 721 mmHg 65%
    20:00 +13°C° 0 mm 1 mps 721 mmHg 67%
    21:00 +13°C° 0 mm 2 mps 721 mmHg 68%
    22:00 +12°C° 0 mm 2 mps 721 mmHg 70%
    23:00 +12°C° 0 mm 2 mps 721 mmHg 71%

    Day after tomorrow, 23 April, Monday

    Time Temperature Precipitation Wind Pressure Humidity
    00:00 +12°C° 0 mm 2 mps 721 mmHg 73%
    01:00 +12°C° 0 mm 2 mps 721 mmHg 74%
    02:00 +12°C° 0.1 mm 2 mps 721 mmHg 76%
    03:00 +12°C° 0.1 mm 2 mps 720 mmHg 78%
    04:00 +12°C° 0.1 mm 2 mps 720 mmHg 80%
    05:00 +13°C° 0 mm 2 mps 720 mmHg 79%
    06:00 +15°C° 0 mm 2 mps 720 mmHg 78%
    07:00 +16°C° 0 mm 3 mps 720 mmHg 77%
    08:00 +17°C° 0 mm 3 mps 720 mmHg 71%
    09:00 +19°C° 0 mm 4 mps 720 mmHg 66%
    10:00 +21°C° 0 mm 5 mps 720 mmHg 60%
    11:00 +22°C° 0.1 mm 5 mps 720 mmHg 57%
    12:00 +22°C° 0.1 mm 5 mps 720 mmHg 54%
    13:00 +23°C° 0.1 mm 5 mps 720 mmHg 51%
    14:00 +21°C° 0.7 mm 5 mps 720 mmHg 60%
    15:00 +19°C° 0.7 mm 5 mps 720 mmHg 70%
    16:00 +17°C° 0.7 mm 5 mps 720 mmHg 79%
    17:00 +17°C° 0.5 mm 4 mps 720 mmHg 82%
    18:00 +15°C° 0.5 mm 4 mps 720 mmHg 86%
    19:00 +14°C° 0.5 mm 4 mps 720 mmHg 89%
    20:00 +13°C° 0.2 mm 3 mps 720 mmHg 90%
    21:00 +12°C° 0.2 mm 3 mps 721 mmHg 91%
    22:00 +11°C° 0.2 mm 3 mps 721 mmHg 91%
    23:00 +11°C° 0 mm 3 mps 722 mmHg 92%

    24 April, Tuesday

    Time Temperature Precipitation Wind Pressure Humidity
    00:00 +10°C° 0 mm 3 mps 722 mmHg 92%
    01:00 +9°C° 0 mm 2 mps 722 mmHg 92%
    02:00 +9°C° 0 mm 2 mps 722 mmHg 92%
    03:00 +8°C° 0 mm 2 mps 722 mmHg 92%
    04:00 +7°C° 0 mm 2 mps 723 mmHg 92%
    05:00 +8°C° 0 mm 2 mps 723 mmHg 89%
    06:00 +9°C° 0 mm 3 mps 723 mmHg 85%
    07:00 +10°C° 0 mm 3 mps 724 mmHg 81%
    08:00 +11°C° 0 mm 3 mps 724 mmHg 74%
    09:00 +13°C° 0 mm 4 mps 724 mmHg 67%
    10:00 +14°C° 0 mm 4 mps 724 mmHg 60%
    11:00 +15°C° 0 mm 4 mps 724 mmHg 56%
    12:00 +17°C° 0 mm 4 mps 724 mmHg 53%
    13:00 +18°C° 0 mm 4 mps 723 mmHg 50%
    14:00 +18°C° 0 mm 4 mps 723 mmHg 50%
    15:00 +19°C° 0 mm 4 mps 723 mmHg 50%
    16:00 +19°C° 0 mm 4 mps 722 mmHg 50%
    17:00 +17°C° 0 mm 3 mps 722 mmHg 56%
    18:00 +15°C° 0 mm 2 mps 722 mmHg 62%
    19:00 +14°C° 0 mm 2 mps 721 mmHg 68%
    20:00 +13°C° 0 mm 2 mps 721 mmHg 70%
    21:00 +12°C° 0 mm 2 mps 722 mmHg 72%
    22:00 +12°C° 0 mm 2 mps 722 mmHg 73%
    23:00 +10°C° 0 mm 2 mps 722 mmHg 75%

    25 April, Wednesday

    Time Temperature Precipitation Wind Pressure Humidity
    00:00 +11°C° 0 mm 1 mps 721 mmHg 77%
    01:00 +10°C° 0 mm 1 mps 721 mmHg 79%
    02:00 +10°C° 0 mm 1 mps 721 mmHg 81%
    03:00 +10°C° 0 mm 1 mps 721 mmHg 82%
    04:00 +8°C° 0 mm 2 mps 721 mmHg 84%
    05:00 +10°C° 0 mm 2 mps 721 mmHg 80%
    06:00 +12°C° 0 mm 2 mps 721 mmHg 75%
    07:00 +12°C° 0 mm 3 mps 721 mmHg 71%
    08:00 +14°C° 0 mm 4 mps 721 mmHg 65%
    09:00 +17°C° 0 mm 4 mps 720 mmHg 59%
    10:00 +19°C° 0 mm 5 mps 720 mmHg 53%
    11:00 +20°C° 0 mm 6 mps 720 mmHg 51%
    12:00 +21°C° 0 mm 6 mps 720 mmHg 49%
    13:00 +23°C° 0 mm 7 mps 719 mmHg 47%
    14:00 +23°C° 0 mm 6 mps 719 mmHg 48%
    15:00 +23°C° 0 mm 6 mps 718 mmHg 49%
    16:00 +23°C° 0 mm 5 mps 717 mmHg 50%
    17:00 +21°C° 0.6 mm 4 mps 717 mmHg 59%
    18:00 +19°C° 0.6 mm 4 mps 717 mmHg 69%
    19:00 +17°C° 0.6 mm 3 mps 716 mmHg 78%
    20:00 +16°C° 0.9 mm 3 mps 717 mmHg 82%
    21:00 +14°C° 0.9 mm 3 mps 717 mmHg 86%
    22:00 +13°C° 0.9 mm 3 mps 717 mmHg 90%
    23:00 +13°C° 0 mm 3 mps 717 mmHg 91%

    26 April, Thursday

    Time Temperature Precipitation Wind Pressure Humidity
    00:00 +12°C° 0 mm 3 mps 718 mmHg 92%
    01:00 +11°C° 0 mm 3 mps 718 mmHg 93%
    02:00 +12°C° 0 mm 2 mps 718 mmHg 93%
    03:00 +10°C° 0 mm 2 mps 719 mmHg 93%
    04:00 +9°C° 0 mm 2 mps 719 mmHg 93%
    05:00 +10°C° 0 mm 2 mps 719 mmHg 90%
    06:00 +10°C° 0 mm 2 mps 719 mmHg 87%
    07:00 +12°C° 0 mm 2 mps 720 mmHg 84%
    08:00 +13°C° 0.1 mm 2 mps 720 mmHg 79%
    09:00 +13°C° 0.1 mm 2 mps 720 mmHg 75%
    10:00 +14°C° 0.1 mm 2 mps 720 mmHg 71%
    11:00 +14°C° 0.3 mm 2 mps 720 mmHg 72%
    12:00 +14°C° 0.3 mm 2 mps 720 mmHg 74%
    13:00 +14°C° 0.3 mm 2 mps 720 mmHg 75%
    14:00 +14°C° 0.3 mm 2 mps 720 mmHg 76%
    15:00 +14°C° 0.3 mm 2 mps 720 mmHg 76%
    16:00 +13°C° 0.3 mm 3 mps 719 mmHg 77%
    17:00 +12°C° 0.1 mm 3 mps 720 mmHg 78%
    18:00 +11°C° 0.1 mm 3 mps 720 mmHg 79%
    19:00 +10°C° 0.1 mm 3 mps 720 mmHg 80%
    20:00 +9°C° 0 mm 2 mps 720 mmHg 80%
    21:00 +9°C° 0 mm 2 mps 720 mmHg 80%
    22:00 +8°C° 0 mm 2 mps 721 mmHg 80%
    23:00 +8°C° 0 mm 2 mps 721 mmHg 80%
    Show more